DateTimeUTC,F1_A11,F1_S11,BsB_S11,BsG_S11,BsR_S11,BbsB_S11,BbsG_S11,BbsR_S11,BaB_A11,BaG_A11,BaR_A11,Tu_S11,T_S11,Uu_S11,U_S11,P_S11,T1_A11
2021-12-05T15:00:00Z,00000200,21000000,,,,,,,-000.03,-000.06,0000.31,20.7,27.7,,00.0,0632.8,31.3
2021-12-05T15:01:00Z,00000200,21000000,,,,,,,0000.23,0000.05,0000.24,20.7,27.7,,00.0,0632.8,31.3
2021-12-05T15:02:00Z,00000200,21000000,,,,,,,-000.51,0000.34,-000.18,20.7,27.6,,00.0,0632.8,31.2
2021-12-05T15:03:00Z,00000200,61000000,,,,,,,0000.27,-000.20,-000.27,20.7,27.6,,00.0,0632.8,31.2
2021-12-05T15:04:00Z,00000200,41000000,0000.08,0000.07,0000.37,-000.15,0000.35,-000.28,0000.12,0000.07,0000.32,20.7,27.4,,00.0,0633.5,31.2
2021-12-05T15:05:00Z,00000200,01000000,0000.67,0000.35,0000.24,-000.06,0000.14,0000.19,0000.03,0000.24,0000.06,20.6,27.3,,00.0,0633.5,31.2
2021-12-05T15:06:00Z,00000200,01000000,-000.16,-000.30,-000.10,0000.36,-000.09,-000.21,0000.10,-000.04,-000.18,20.6,27.2,00.0,00.0,0633.6,31.1
2021-12-05T15:07:00Z,00000200,01000000,0000.24,-000.39,-000.07,-000.08,0000.10,-000.15,-000.02,-000.23,0000.29,20.6,27.2,,00.0,0633.6,31.1
2021-12-05T15:08:00Z,00000200,01000000,-000.19,0000.16,-000.43,0000.16,-000.04,-000.43,0000.19,0000.25,-000.01,20.6,27.2,,00.0,0633.5,31.1
2021-12-05T15:09:00Z,00000200,01000000,-000.27,0000.27,-000.02,-000.38,0000.12,-000.03,0000.19,0000.48,0000.19,20.7,27.2,00.0,00.0,0633.6,31.1
2021-12-05T15:10:00Z,00000200,01000000,0000.09,-000.07,-000.06,-000.18,-000.07,-000.07,0000.29,-000.26,-000.15,20.8,27.2,00.0,00.0,0633.6,31.2
2021-12-05T15:11:00Z,00000200,01000000,0000.02,-000.13,-000.01,-000.22,0000.10,-000.23,-000.20,0000.30,0000.15,20.8,27.3,,00.0,0633.7,31.2
2021-12-05T15:12:00Z,00000200,01000000,0000.36,-000.16,0000.05,0000.16,-000.22,-000.04,0000.06,-000.05,0000.31,20.9,27.3,,00.0,0633.7,31.2
2021-12-05T15:13:00Z,00000200,01000000,-000.17,0000.11,0000.12,-000.84,-000.01,-000.16,-000.09,-000.33,0000.11,21.0,27.3,,00.0,0633.7,31.2
2021-12-05T15:14:00Z,00000200,01000000,-000.24,-000.34,-000.22,0000.01,0000.08,0000.03,0000.23,0000.42,-000.25,21.1,27.4,,00.0,0633.7,31.2
2021-12-05T15:15:00Z,00000200,01000000,0000.34,-000.07,0000.02,0000.26,-000.02,0000.05,-000.02,0000.32,0000.19,21.1,27.4,00.0,00.0,0633.7,31.3
2021-12-05T15:16:00Z,00000200,01000000,-000.13,0000.14,0000.03,-000.39,0000.14,-000.18,0000.02,0000.16,-000.21,21.2,27.4,,00.0,0633.7,31.3
2021-12-05T15:17:00Z,00000200,01000000,0000.21,-000.01,0000.06,0000.18,0000.46,-000.22,0000.25,-000.06,0000.34,21.2,27.4,,00.0,0633.7,31.3
2021-12-05T15:18:00Z,00000200,01000000,0000.37,0000.25,0000.26,0000.10,0000.16,0000.02,-000.05,0000.09,0000.14,21.1,27.5,,00.0,0633.7,31.3
2021-12-05T15:19:00Z,00000200,01000000,-000.10,-000.18,0000.45,-000.36,0000.02,0000.03,0000.10,-000.07,-000.11,21.1,27.4,,00.0,0633.5,31.2
2021-12-05T15:20:00Z,00000200,01000000,-000.07,-000.23,-000.06,0000.82,0000.00,0000.00,0000.20,-000.28,0000.11,21.1,27.4,,00.0,0633.5,31.2
2021-12-05T15:21:00Z,00000200,01000000,-000.50,0000.12,0000.07,0000.17,0000.13,0000.21,-000.28,-000.06,-000.45,21.0,27.4,,00.0,0633.5,31.2
2021-12-05T15:22:00Z,00000200,01000000,-000.21,0000.07,0000.36,-000.21,0000.09,-000.33,0000.17,0000.39,0000.46,21.0,27.3,,00.0,0633.5,31.2
2021-12-05T15:23:00Z,00000200,01000000,-000.09,0000.11,0000.06,0000.02,-000.04,-000.08,-000.08,-000.16,-000.00,21.0,27.3,,00.0,0633.4,31.2
2021-12-05T15:24:00Z,00000200,01000000,0000.09,0000.40,0000.29,0000.08,0000.11,-000.10,0000.22,0000.29,0000.04,21.1,27.4,,00.0,0633.3,31.2
2021-12-05T15:25:00Z,00000200,01000000,-000.07,-000.12,0000.08,0000.09,-000.15,0000.01,0000.14,0000.21,0000.17,21.1,27.4,,00.0,0633.2,31.2
2021-12-05T15:26:00Z,00000200,01000000,0000.04,0000.34,0000.10,-000.06,0000.17,0000.08,0000.19,-000.02,-000.11,21.2,27.4,,00.0,0633.1,31.3
2021-12-05T15:27:00Z,00000200,01000000,0000.04,-000.09,0000.33,0000.29,0000.55,-000.01,-000.08,-000.04,-000.08,21.3,27.4,,00.0,0633.0,31.3
2021-12-05T15:28:00Z,00000200,01000000,0000.06,0000.46,0000.14,0000.42,0000.08,-000.10,0000.33,0000.23,0000.34,21.3,27.5,,00.0,0633.0,31.3
2021-12-05T15:29:00Z,00000200,01000000,-000.21,-000.11,0000.13,-000.17,0000.23,0000.09,-000.14,-000.15,-000.26,21.4,27.5,,00.0,0633.0,31.3
2021-12-05T15:30:00Z,00000200,01000000,-000.09,0000.11,-000.08,-000.14,0000.48,-000.07,0000.11,0000.18,0000.49,21.4,27.6,,00.0,0633.0,31.3
2021-12-05T15:31:00Z,00000200,01000000,0000.12,0000.13,0000.29,-000.01,0000.49,-000.12,-000.19,-000.33,-000.36,21.5,27.6,,00.0,0633.0,31.4
2021-12-05T15:32:00Z,00000200,01000000,-000.18,0000.32,-000.10,-000.19,0000.41,0000.10,0000.31,0000.38,0000.33,21.4,27.6,,00.0,0632.9,31.4
2021-12-05T15:33:00Z,00000200,01000000,0000.33,0000.14,0000.06,0000.07,0000.50,0000.15,0000.13,0000.08,0000.46,21.4,27.6,,00.0,0632.8,31.3
2021-12-05T15:34:00Z,00000200,01010000,-000.38,-000.31,0000.27,0000.15,0000.30,-000.01,0000.13,0000.24,-000.24,21.3,27.6,00.0,00.0,0632.8,31.3
2021-12-05T15:35:00Z,00000200,01010000,-000.17,0000.06,0000.07,-000.41,0000.06,-000.33,0000.04,0000.36,0000.19,21.3,27.5,,00.0,0632.7,31.3
2021-12-05T15:36:00Z,00000200,01000000,-001.10,0000.14,0000.11,0000.40,0000.02,-000.23,-000.13,-000.41,-000.32,21.2,27.5,,00.0,0632.7,31.3
2021-12-05T15:37:00Z,00000200,01000000,-000.11,0000.17,0000.23,0000.47,0000.31,-000.05,0000.31,-000.20,0000.05,21.2,27.5,,00.0,0632.7,31.3
2021-12-05T15:38:00Z,00000200,01000000,0000.10,0000.23,-000.10,-000.37,0000.30,-000.82,-000.26,0000.40,0000.15,21.2,27.5,,00.0,0632.6,31.3
2021-12-05T15:39:00Z,00000200,01000000,-000.55,-000.05,0000.12,-000.24,0000.09,0000.22,0000.29,-000.05,0000.10,21.3,27.5,,00.0,0632.6,31.3
2021-12-05T15:40:00Z,00000200,01000000,0000.26,0000.13,-000.08,-000.01,0000.18,-000.31,0000.05,0000.35,0000.02,21.3,27.5,,00.0,0632.5,31.3
2021-12-05T15:41:00Z,00000200,01000000,-000.76,-000.02,0000.05,-000.34,0000.25,-000.43,-000.20,0000.19,0000.10,21.4,27.5,,00.0,0632.6,31.3
2021-12-05T15:42:00Z,00000200,01000000,-000.26,0000.13,0000.10,-000.56,0000.14,-000.22,0000.22,-000.36,-000.08,21.5,27.6,,00.0,0632.5,31.4
2021-12-05T15:43:00Z,00000200,01000000,0000.57,0000.01,0000.39,0000.49,0000.05,0000.08,-000.00,0000.04,0000.25,21.5,27.6,,00.0,0632.5,31.4
2021-12-05T15:44:00Z,00000200,01000000,0000.18,0000.24,0000.01,0000.45,-000.06,0000.09,0000.20,0000.22,-000.32,21.4,27.6,,00.0,0632.4,31.4
2021-12-05T15:45:00Z,00000200,01000000,0000.42,-000.05,0000.09,0000.19,-000.14,0000.01,-000.07,-000.12,0000.31,21.4,27.6,00.0,00.0,0632.4,31.3
2021-12-05T15:46:00Z,00000200,01000000,0000.09,0000.09,0000.19,0000.10,0000.18,-000.19,0000.18,0000.23,-000.01,21.3,27.6,,00.0,0632.3,31.3
2021-12-05T15:47:00Z,00000200,01000000,0000.48,0000.17,-000.23,-000.03,-000.11,-000.31,-000.27,0000.05,0000.15,21.2,27.5,,00.0,0632.2,31.3
2021-12-05T15:48:00Z,00000200,01000000,-000.34,-000.03,-000.43,-000.36,0000.10,-000.17,0000.30,-000.04,-000.17,21.2,27.5,,00.0,0632.2,31.3
2021-12-05T15:49:00Z,00000200,01000000,0000.25,0000.15,-000.04,-000.48,0000.04,-000.18,0000.20,-000.11,-000.07,21.1,27.4,00.0,00.0,0632.2,31.3
2021-12-05T15:50:00Z,00000200,01000000,-000.21,-000.00,0000.06,0000.50,0000.08,-000.23,0000.01,0000.31,0000.23,21.1,27.4,,00.0,0632.1,31.2
2021-12-05T15:51:00Z,00000200,01000000,0000.14,0000.10,0000.11,-000.02,0000.05,-000.44,-000.15,-000.47,-000.37,21.0,27.4,,00.0,0632.1,31.2
2021-12-05T15:52:00Z,00000200,01000000,0000.06,0000.03,-000.00,0000.50,0000.07,-000.14,-000.27,0000.12,0000.07,21.0,27.4,,00.0,0632.2,31.2
2021-12-05T15:53:00Z,00000200,01000000,0000.28,0000.05,0000.06,0000.05,0000.33,-000.03,0000.25,0000.33,0000.25,21.0,27.4,,00.0,0632.3,31.2
2021-12-05T15:54:00Z,00000200,01000000,-000.47,0000.43,-000.04,-000.32,0000.21,-000.17,0000.48,-000.14,0000.55,21.0,27.4,,00.0,0632.3,31.2
2021-12-05T15:55:00Z,00000200,01000000,0000.17,0000.13,0000.11,0000.13,0000.05,0000.13,-000.01,0000.27,-000.35,21.1,27.4,,00.0,0632.3,31.3
2021-12-05T15:56:00Z,00000200,01000000,0000.08,0000.30,-000.04,-000.12,-000.01,-000.11,0000.04,0000.13,-000.26,21.2,27.4,,00.0,0632.4,31.3
2021-12-05T15:57:00Z,00000200,41000000,,,,,,,0000.32,0000.61,0000.54,21.3,27.5,,00.0,0632.5,31.3
2021-12-05T15:58:00Z,00000200,61000000,,,,,,,-000.30,-000.57,-000.05,21.1,27.6,,00.0,0631.4,31.3
2021-12-05T15:59:00Z,00000200,21000000,,,,,,,0000.12,-000.10,-000.12,21.1,27.7,,00.0,0631.4,31.3
